Location: La Silve
(44.2414°N, 5.8889°E)
Time: 05:27:51
(UTC+00:00)

Cosmos 1500 - Pass Details

Date: 01 December 2020
Orbit: 498 x 519 km, 82.5° (Epoch: 24 January)

Event Time Altitude Azimuth Distance (km) Brightness Sun altitude
Rises 17:01:43 0° 4° (N) 2,637 6.6 -11.0°
Reaches altitude 10° 17:04:11 10° 19° (NNE) 1,749 5.5 -11.4°
Maximum altitude 17:07:18 23° 73° (ENE) 1,124 4.3 -12.0°
Drops below altitude 10° 17:10:25 10° 128° (SE) 1,745 5.6 -12.5°
Sets 17:12:52 0° 143° (SE) 2,629 6.6 -12.9°
